Fort Indiantown Gap, PA

4:09 PM EST on December 09, 2019 (GMT -0500)
Muir Army Air Field

Weather History for KMUI - October, 2019

Change the Weather History Date:

Saturday, October 12, 2019

  Actual Average Record
Temperature  
Mean Temperature 52 °F -  
Max Temperature 65 °F 62 °F 74 °F (2008)
Min Temperature 41 °F 45 °F 32 °F (2012)
Degree Days  
Heating Degree Days 12    
Growing Degree Days 2 (Base 50)    
Moisture  
Dew Point 44 °F    
Average Humidity 71    
Maximum Humidity 93    
Minimum Humidity 55    
Precipitation  
Precipitation 0.00 in - - ()
Sea Level Pressure  
Sea Level Pressure 30.02 in    
Wind  
Wind Speed 1 mph (West)    
Max Wind Speed 9 mph    
Max Gust Speed 16 mph    
Visibility 10 miles    
Events      
Averages and records for this station are not official NWS values.
T = Trace of Precipitation, MM = Missing Value Source: NWS Daily Summary

Daily Weather History Graph

Daily Weather History Graph

Search for Another Location

Airport or City:

Astronomy

Oct. 12, 2019 Rise Set
Actual Time 7:13 AM EDT 6:31 PM EDT
Civil Twilight 6:46 AM EDT 6:58 PM EDT
Nautical Twilight 6:14 AM EDT 7:30 PM EDT
Astronomical Twilight 5:43 AM EDT 8:01 PM EDT
Moon 6:26 PM EDT (10/12) 5:48 AM EDT (10/12)
Length of Visible Light 12h 12m
Length of Day
11h 17m
Waxing Gibbous, 99% of the Moon is Illuminated
Oct 12
Waxing Gibbous
Oct 13
Full
Oct 21
Last Quarter
Oct 27
New
Nov 4
First Quarter

Hourly Weather History & Observations

Time (EDT) Temp. Dew Point Humidity Pressure Visibility Wind Dir Wind Speed Gust Speed Precip Events Conditions
12:56 AM 47.5 °F 44.1 °F 88% 30.05 in 10.0 mi Calm Calm - N/A   Clear
1:56 AM 48.7 °F 43.9 °F 83% 30.05 in 10.0 mi Calm Calm - N/A   Clear
2:56 AM 45.0 °F 42.4 °F 91% 30.04 in 10.0 mi Calm Calm - N/A   Clear
3:56 AM 43.7 °F 41.5 °F 92% 30.02 in 10.0 mi Calm Calm - N/A   Clear
4:56 AM 42.6 °F 40.5 °F 92% 30.02 in 10.0 mi Calm Calm - N/A   Clear
5:56 AM 41.0 °F 39.2 °F 93% 30.01 in 10.0 mi Calm Calm - N/A   Clear
6:56 AM 42.3 °F 40.1 °F 92% 30.02 in 10.0 mi Calm Calm - N/A   Clear
7:56 AM 45.1 °F 42.6 °F 91% 30.02 in 10.0 mi Calm Calm - N/A   Clear
8:56 AM 49.5 °F 45.5 °F 86% 30.02 in 10.0 mi Calm Calm - N/A   Scattered Clouds
9:56 AM 53.6 °F 46.6 °F 77% 30.02 in 10.0 mi Calm Calm - N/A   Overcast
10:56 AM 56.1 °F 43.3 °F 62% 30.02 in 10.0 mi Calm Calm - N/A   Overcast
11:56 AM 57.7 °F 44.4 °F 61% 30.01 in 10.0 mi Calm Calm - N/A   Overcast
12:56 PM 58.3 °F 44.4 °F 60% 29.99 in 10.0 mi Calm Calm - N/A   Overcast
1:05 PM 59.0 °F 44.6 °F 59% 29.99 in 9.0 mi Calm Calm - N/A   Light Drizzle
1:21 PM 59.0 °F 44.6 °F 59% 30.00 in 10.0 mi Calm Calm - N/A   Overcast
1:56 PM 59.5 °F 44.2 °F 57% 30.00 in 10.0 mi WSW 4.6 mph - 0.00 in   Overcast
2:56 PM 61.0 °F 46.6 °F 59% 29.98 in 10.0 mi SW 3.5 mph - N/A   Overcast
3:56 PM 64.2 °F 47.7 °F 55% 29.99 in 10.0 mi West 4.6 mph - N/A   Scattered Clouds
4:56 PM 64.2 °F 49.1 °F 58% 29.98 in 10.0 mi WSW 5.8 mph - N/A   Mostly Cloudy
5:56 PM 64.2 °F 50.0 °F 60% 29.99 in 10.0 mi SW 3.5 mph - N/A   Overcast
6:56 PM 59.9 °F 51.6 °F 74% 30.00 in 10.0 mi Calm Calm - N/A   Overcast
7:56 PM 59.2 °F 49.8 °F 71% 30.02 in 10.0 mi West 9.2 mph - N/A   Clear
8:56 PM 59.2 °F 46.6 °F 63% 30.04 in 10.0 mi West 4.6 mph - N/A   Clear
9:56 PM 57.0 °F 42.4 °F 58% 30.05 in 10.0 mi WNW 8.1 mph - N/A   Clear
10:56 PM 55.6 °F 41.0 °F 58% 30.05 in 10.0 mi WNW 8.1 mph - N/A   Clear
11:56 PM 53.8 °F 39.4 °F 58% 30.07 in 10.0 mi WNW 9.2 mph 16.1 mph N/A   Clear